TimeEST,TemperatureF,Dew PointF,Humidity,Sea Level PressureIn,VisibilityMPH,Wind Direction,Wind SpeedMPH,Gust SpeedMPH,PrecipitationIn,Events,Conditions,WindDirDegrees,DateUTC
12:55 AM,29.7,26.1,86,30.26,10.0,ESE,13.8,-,N/A,,Clear,110,2012-12-06 05:55:00
1:55 AM,29.7,25.5,85,30.25,10.0,ESE,11.5,-,N/A,,Clear,120,2012-12-06 06:55:00
2:55 AM,28.8,25.5,88,30.25,10.0,ESE,9.2,-,N/A,,Partly Cloudy,110,2012-12-06 07:55:00
3:55 AM,28.4,25.3,88,30.24,10.0,ESE,11.5,-,N/A,,Mostly Cloudy,120,2012-12-06 08:55:00
4:55 AM,27.9,25.0,89,30.22,10.0,ESE,8.1,-,N/A,,Scattered Clouds,120,2012-12-06 09:55:00
5:55 AM,27.1,24.6,90,30.22,10.0,ESE,6.9,-,N/A,,Clear,110,2012-12-06 10:55:00
6:55 AM,26.8,24.4,91,30.21,10.0,ESE,8.1,-,N/A,,Partly Cloudy,110,2012-12-06 11:55:00
7:55 AM,27.7,25.2,90,30.20,10.0,ESE,8.1,-,N/A,,Overcast,110,2012-12-06 12:55:00
8:55 AM,29.1,25.9,88,30.19,10.0,SE,9.2,-,N/A,,Overcast,130,2012-12-06 13:55:00
9:55 AM,30.9,27.3,86,30.18,10.0,SE,8.1,-,N/A,,Overcast,130,2012-12-06 14:55:00
10:31 AM,32.0,28.4,87,30.14,10.0,SE,6.9,-,N/A,,Overcast,130,2012-12-06 15:31:00
10:55 AM,33.3,29.1,85,30.18,10.0,SE,5.8,-,N/A,,Mostly Cloudy,140,2012-12-06 15:55:00
11:55 AM,35.6,30.7,82,30.13,10.0,SE,10.4,-,N/A,,Overcast,130,2012-12-06 16:55:00
12:55 PM,39.0,33.4,80,30.09,10.0,SSE,8.1,-,N/A,,Scattered Clouds,150,2012-12-06 17:55:00
1:55 PM,41.4,35.1,78,30.06,10.0,SSE,4.6,-,N/A,,Scattered Clouds,150,2012-12-06 18:55:00
2:55 PM,43.2,36.5,77,30.03,10.0,SE,6.9,-,N/A,,Mostly Cloudy,130,2012-12-06 19:55:00
3:55 PM,45.0,38.1,77,30.03,10.0,SE,5.8,-,N/A,,Overcast,140,2012-12-06 20:55:00
4:55 PM,42.8,38.3,84,30.02,10.0,SE,5.8,-,N/A,,Partly Cloudy,140,2012-12-06 21:55:00
5:55 PM,41.2,37.6,87,30.01,10.0,SE,5.8,-,N/A,,Partly Cloudy,140,2012-12-06 22:55:00
6:55 PM,41.4,37.8,87,30.01,10.0,SE,3.5,-,N/A,,Mostly Cloudy,140,2012-12-06 23:55:00
7:55 PM,40.3,37.2,89,30.00,10.0,SE,5.8,-,N/A,,Overcast,130,2012-12-07 00:55:00
8:55 PM,39.9,37.2,90,29.99,10.0,Calm,Calm,-,N/A,,Overcast,0,2012-12-07 01:55:00
9:55 PM,41.5,38.3,88,29.99,10.0,SSE,3.5,-,N/A,,Overcast,150,2012-12-07 02:55:00
10:55 PM,41.5,38.7,89,29.98,10.0,SSE,4.6,-,N/A,,Overcast,150,2012-12-07 03:55:00
11:55 PM,42.4,38.8,87,29.96,10.0,South,5.8,-,N/A,,Overcast,180,2012-12-07 04:55:00